Regional Weather Roundup
Issued by NWS

Home | Current Version | Previous Version | Text Only | Print | Product List | Glossary Off
Versions: 1 2 3 4 5 6 7 8 9 10 11 12 13 14 15 16 17 18 19 20 21 22 23 24 25 26 27 28 29 30 31 32 33 34 35 36 37 38 39 40 41 42 43 44 45 46 47 48 49 50

000
ASUS45 KCYS 250610
RWRWY

WYOMING REGIONAL WEATHER ROUNDUP
NATIONAL WEATHER SERVICE CHEYENNE WY
1200 AM MDT SAT MAR 25 2017

NOTE:  "FAIR" INDICATES FEW OR NO CLOUDS BELOW 12,000 FEET
WITH NO SIGNIFICANT WEATHER AND/OR OBSTRUCTIONS TO VISIBILITY.

WYZ001-250700-
YELLOWSTONE NATIONAL PARK

CITY           SKY/WX    TMP DP  RH WIND       PRES   REMARKS
LK YELLOWSTONE   N/A     30  27  88 CALM      30.07F
6HR MIN TEMP:  30; 6HR MAX TEMP:  40;

W YELLOWSTONE  NOT AVBL

$$
WYZ002>013-054>058-071-098>099-250700-
NORTHERN WYOMING

CITY           SKY/WX    TMP DP  RH WIND       PRES   REMARKS
JACKSON        CLOUDY    36  34  93 SW9       30.10R WCI  29
CODY           FAIR      51  19  28 W10G20    29.93R
GREYBULL       FAIR      51  32  48 S7        29.89S
6HR MIN TEMP:  50; 6HR MAX TEMP:  59;

WORLAND        FAIR      47  35  63 SE13      29.90S
6HR MIN TEMP:  45; 6HR MAX TEMP:  60;

SHERIDAN       FAIR      41  35  79 NW3       29.83S
6HR MIN TEMP:  39; 6HR MAX TEMP:  62;

BUFFALO        FAIR      48  29  47 SE15      29.86F
6HR MIN TEMP:  47; 6HR MAX TEMP:  59;

GILLETTE       FAIR      44  28  53 S20       29.91F
6HR MIN TEMP:  43; 6HR MAX TEMP:  58;

HULETT         FAIR      50  30  46 S28G36    29.93F
NEWCASTLE      FAIR      43  27  52 SE20G25   30.04F

$$
WYZ014>020-022>026-101>103-250700-
CENTRAL WYOMING

CITY           SKY/WX    TMP DP  RH WIND       PRES   REMARKS
BIG PINEY      CLOUDY    34  30  85 N7        30.11S WCI  28
6HR MIN TEMP:  32; 6HR MAX TEMP:  46;

PINEDALE       CLOUDY    37  28  70 NE3       30.13R
DUBOIS         FAIR      36  23  60 NW22G29   30.01R WCI  24
LANDER         FAIR      46  19  34 CALM      29.95S
6HR MIN TEMP:  45; 6HR MAX TEMP:  57;

RIVERTON       FAIR      46  28  49 SW6       29.96F
6HR MIN TEMP:  44; 6HR MAX TEMP:  56;

CASPER         FAIR      43  28  55 SW14      29.98F
6HR MIN TEMP:  38; 6HR MAX TEMP:  56;

DOUGLAS        FAIR      39  26  59 SE12      30.02F WCI  32
6HR MIN TEMP:  37; 6HR MAX TEMP:  56;


$$
WYZ021-027>030-104>119-250700-
SOUTHERN WYOMING

CITY           SKY/WX    TMP DP  RH WIND       PRES   REMARKS
EVANSTON       CLOUDY    39  26  59 SW7       30.09S WCI  34
6HR MIN TEMP:  39; 6HR MAX TEMP:  50;

KEMMERER         N/A     34  25  69 CALM      30.10S
FORT BRIDGER   FAIR      42  32  68 CALM      30.12S
ROCK SPRINGS   FAIR      42  31  64 S5        30.09S
6HR MIN TEMP:  42; 6HR MAX TEMP:  52;

DIXON            N/A     36  25  64 CALM      30.16F
RAWLINS        FAIR      35  20  54 S5        30.09F WCI  31
6HR MIN TEMP:  33; 6HR MAX TEMP:  52;

SARATOGA       FAIR      32  21  64 CALM      30.13S
LARAMIE        FAIR      27  20  75 S9        30.11S WCI  18
6HR MIN TEMP:  26; 6HR MAX TEMP:  49;

CHEYENNE       FAIR      30  23  75 SW8       30.11F WCI  22
6HR MIN TEMP:  30; 6HR MAX TEMP:  50;

TORRINGTON     FAIR      36  26  67 SE6       30.09S WCI  31
6HR MIN TEMP:  35; 6HR MAX TEMP:  59;

PINE BLUFFS    FAIR      27  23  86 SW5       30.13S WCI  21

$$



USA.gov is the U.S. government's official web portal to all federal, state and local government web resources and services.